TITAN 3C TRANSTAGE DEB, 21692

Orbit data source: Space-Track

TITAN 3C TRANSTAGE DEB, 21692 is space debris in HEO originally from a launch on Tue, 21 Dec 1965 UTC launched from the Air Force Eastern Test Range (AFETR). Debris objects in space refer to the collection of defunct objects orbiting the Earth. Examples of debris include non-operational satellites, rocket bodies, and fragments generated from explosions, collisions, or faulty payload assembly.

Loading next visibility...
Identifier
21692, 1965-108AF
Orbit
HEO
Country
Flag of USUS
Related business
Manufacturer
Unknown
Mission
Spacecraft
Bus & Motor
Unknown
Mass
Unknown
Launch date (UTC)
1965-12-21 (61 years ago)
Launch vehicle
Unknown
Launch site
Air Force Eastern Test Range (AFETR)
Object type
Payload
Rocket body
Debris
Shape & HBR
Unknown shape, 0.1 m
Radar Cross Section
Medium (>0.1 m² and <1 m²)

Expand to show TLE details & history
Last TLE update: 2 weeks ago

TLE from 2 weeks ago
0 TITAN 3C TRANSTAGE DEB
1 21692U 65108AF  26241.28736784  .00000219  00000-0  11098-2 0  9993
2 21692  27.5922 123.0506 6150039 223.1162 346.8786  3.60877574167134
Epoch: 2026-08-29T06:53Z
TLE epoch observation values (Epoch: 2026-08-29T06:53:48.581Z)
Latitude
7.90488°
Longitude
-153.15379°
Altitude
2,165.514 km
Speed
8.433 km/s
True Right ascension
19h 11m 11s
True Declination
7° 51' 57"
Sunlit
Object was in daylight at epoch
Visualization orbit readout
Latitude
Unknown
Longitude
Unknown
Altitude
Unknown
Speed
Unknown
Apparent Right ascension
Unknown
Apparent Declination
Unknown
Sunlit
N/A
Visualization observer readout
Local Sidereal Time
22:17:38
Azimuth
Unknown
Elevation
Unknown
Doppler factor
Unknown
Orbital elements
Apogee altitude
22,623.188 km
Perigee altitude
535.405 km
Semi-major axis
17,957.433 km
Eccentricity
0.615
Inclination
27.5922°
RAAN
123.0506°
Arg. of periapsis
223.1162°
True anomaly
299.86157°
Mean anomaly
346.8786°
Eccentric anomaly
328.43117°
Mean motion
0.90194 °/min
Orbital period
399.14 mins
BSTAR
0.0011098
Loading maneuver chart data...
Computing Atmospheric mass density...

Documentation

Showing up to 5 results
|